Hauptseite
METAR-TAF:

METAR-TAF

Flughäfen :

Paganella, Italien

Breite: 46-09N, Länge: 011-02E, Höhe: 2125 m

Beobachtung

Neuester Wetterbericht von vor 21 Minuten, um 22:55 UTC
Wind 8 kt aus Süd/Südwest
Temperatur 6°C
Luftfeuchtigkeit 87%
Luftdruck 1025 hPa
Sichtweite 10 km oder mehr
keine Wolken unter 1500 m und keine Kumulonimbus oder Gewitterwolken

METAR: LIVP 212255Z 20008KT CAVOK 06/04 Q1025 RMK SKC MON LIB VAL NIL VIS MIN 9999

Zeit: 01:16 (23:16 UTC)


TAF: fehlend

Wetterbeobachtungen und Prognosen von mehr als 4000 Flughäfen (METAR und TAF Bericht).

Die verfügbaren Stationen werden durch gelbe und rote Markierungen auf der Karte dargestellt.

Führen Sie die Maus auf sie, um den Namen der Station zu sehen.

Darauf klicken, um die Beobachtung von Wetterbeobachtungen und Prognosen zu sehen.

Um die Karte zu ändern : klicken Sie auf den grünen Tasten mit einem schwarzen Kreuz Zum Vergrößern, auf den grünen Button mit einem Gedankenstrich zu verkleinern, oder auf die grünen Pfeile für benachbarte Karten.


METAR-TAF: